OE5OVL-13 Weather Reports


Display with metric or nautical units.
time (UTC)temp
F
wind
direction
speed
MPH
gust
MPH
rain 1hr
in
rain 24hr
in
rain mn
in
humidity
%
barometer
mb
20260506090033 73 0.0 0.0 0.00 0.00 0.00 49 732.3
20260506084521 72 0.0 0.0 0.00 0.00 0.00 49 731.4
20260506083009 71 0.0 0.0 0.00 0.00 0.00 52 730.8
20260506081458 70 0.0 0.0 0.00 0.00 0.00 55 730.0
20260506072922 67 0.0 0.0 0.00 0.00 0.00 66 728.0
20260506071411 67 0.0 0.0 0.00 0.00 0.00 67 728.0
20260506061324 63 0.0 0.0 0.00 0.00 0.00 76 725.9
20260506051236 61 0.0 0.0 0.00 0.00 0.00 84 724.2
20260506044213 58 0.0 0.0 0.00 0.00 0.00 83 722.3
20260506042701 57 0.0 0.0 0.00 0.00 0.00 85 722.0
20260506041149 56 0.0 0.0 0.00 0.00 0.00 84 721.3
20260506035638 56 0.0 0.0 0.00 0.00 0.00 83 721.5
20260506034126 57 0.0 0.0 0.00 0.00 0.00 82 721.6
20260506032614 57 0.0 0.0 0.00 0.00 0.00 82 721.9
20260506031103 58 0.0 0.0 0.00 0.00 0.00 82 722.2
20260506025551 58 0.0 0.0 0.00 0.00 0.00 81 722.6
20260506024039 59 0.0 0.0 0.00 0.00 0.00 81 723.0
20260506022528 59 0.0 0.0 0.00 0.00 0.00 80 723.3
20260506021016 60 0.0 0.0 0.00 0.00 0.00 77 724.0
20260506015504 61 0.0 0.0 0.00 0.00 0.00 76 724.5
20260506013952 61 0.0 0.0 0.00 0.00 0.00 77 724.4
20260506012441 61 0.0 0.0 0.00 0.00 0.00 78 724.4
20260506005417 62 0.0 0.0 0.00 0.00 0.00 77 724.9
20260506003905 62 0.0 0.0 0.00 0.00 0.00 77 725.3
20260506002354 62 0.0 0.0 0.00 0.00 0.00 78 725.2
20260506000842 62 0.0 0.0 0.00 0.00 0.00 78 725.1
20260505235330 63 0.0 0.0 0.00 0.00 0.00 77 725.5
20260505233818 63 0.0 0.0 0.00 0.00 0.00 77 725.7
20260505232306 63 0.0 0.0 0.00 0.00 0.00 77 725.4
20260505230755 63 0.0 0.0 0.00 0.00 0.00 76 725.5
20260505225243 64 0.0 0.0 0.00 0.00 0.00 74 725.9
20260505223732 64 0.0 0.0 0.00 0.00 0.00 73 726.1
20260505220708 64 0.0 0.0 0.00 0.00 0.00 70 726.2
20260505215156 65 0.0 0.0 0.00 0.00 0.00 68 727.0
20260505213644 66 0.0 0.0 0.00 0.00 0.00 66 727.5
20260505212132 66 0.0 0.0 0.00 0.00 0.00 65 727.8
20260505210621 67 0.0 0.0 0.00 0.00 0.00 63 728.0
20260505205109 67 0.0 0.0 0.00 0.00 0.00 62 728.0
20260505203557 67 0.0 0.0 0.00 0.00 0.00 60 728.4
20260505202045 68 0.0 0.0 0.00 0.00 0.00 58 728.6
20260505200534 68 0.0 0.0 0.00 0.00 0.00 57 728.6
20260505195022 68 0.0 0.0 0.00 0.00 0.00 57 728.5
20260505193510 68 0.0 0.0 0.00 0.00 0.00 56 728.5
20260505191958 68 0.0 0.0 0.00 0.00 0.00 57 728.5
20260505190447 68 0.0 0.0 0.00 0.00 0.00 57 728.9
20260505184935 69 0.0 0.0 0.00 0.00 0.00 54 729.6
20260505183423 72 0.0 0.0 0.00 0.00 0.00 43 731.6
20260505181912 76 0.0 0.0 0.00 0.00 0.00 39 733.6
20260505180400 77 0.0 0.0 0.00 0.00 0.00 37 734.6
20260505174848 80 0.0 0.0 0.00 0.00 0.00 32 736.2
20260505173336 82 0.0 0.0 0.00 0.00 0.00 31 737.4
20260505171824 88 0.0 0.0 0.00 0.00 0.00 25 741.5
20260505170313 93 0.0 0.0 0.00 0.00 0.00 25 744.6
20260505164801 87 0.0 0.0 0.00 0.00 0.00 26 741.1
20260505163249 91 0.0 0.0 0.00 0.00 0.00 25 743.7
20260505161737 98 0.0 0.0 0.00 0.00 0.00 20 747.9
20260505160227 101 0.0 0.0 0.00 0.00 0.00 18 749.9
20260505153202 101 0.0 0.0 0.00 0.00 0.00 19 749.8
20260505151650 99 0.0 0.0 0.00 0.00 0.00 20 748.6
20260505150139 98 0.0 0.0 0.00 0.00 0.00 18 748.0
20260505124453 92 0.0 0.0 0.00 0.00 0.00 24 744.4
20260505122941 91 0.0 0.0 0.00 0.00 0.00 28 743.7
20260505121429 87 0.0 0.0 0.00 0.00 0.00 24 741.4
20260505115918 87 0.0 0.0 0.00 0.00 0.00 27 741.3
20260505114406 84 0.0 0.0 0.00 0.00 0.00 31 739.2
20260505112854 84 0.0 0.0 0.00 0.00 0.00 31 738.9
20260505111342 82 0.0 0.0 0.00 0.00 0.00 36 737.7
20260505101255 77 0.0 0.0 0.00 0.00 0.00 43 734.8
20260505095744 76 0.0 0.0 0.00 0.00 0.00 43 734.0
20260505094232 75 0.0 0.0 0.00 0.00 0.00 46 733.3
20260505092720 73 0.0 0.0 0.00 0.00 0.00 46 732.3